• In Romania
  • List of Countries
  • For 7 days
  • Water Temperature
  • Satellite Maps
  • Weather Map
  • Weather Widgets
  • user-avatar
    Login

    Hourly Weather Wien

    Today, 19 January, Thursday

    Time Temperature Precipitation Wind Pressure Humidity
    00:00 -10°C° 0 mm 2 mps 758 mmHg 94%
    01:00 -12°C° 0 mm 2 mps 758 mmHg 94%
    02:00 -12°C° 0 mm 2 mps 758 mmHg 94%
    03:00 -12°C° 0 mm 2 mps 758 mmHg 94%
    04:00 -13°C° 0 mm 2 mps 758 mmHg 94%
    05:00 -13°C° 0 mm 2 mps 758 mmHg 94%
    06:00 -13°C° 0 mm 2 mps 758 mmHg 94%
    07:00 -14°C° 0 mm 2 mps 758 mmHg 94%
    08:00 -13°C° 0 mm 2 mps 758 mmHg 92%
    09:00 -10°C° 0 mm 2 mps 758 mmHg 90%
    10:00 -9°C° 0 mm 2 mps 758 mmHg 88%
    11:00 -8°C° 0 mm 2 mps 758 mmHg 86%
    12:00 -6°C° 0 mm 1 mps 758 mmHg 83%
    13:00 -4°C° 0 mm 1 mps 758 mmHg 81%
    14:00 -6°C° 0 mm 1 mps 758 mmHg 84%
    15:00 -7°C° 0 mm 1 mps 757 mmHg 87%
    16:00 -8°C° 0 mm 1 mps 757 mmHg 89%
    17:00 -9°C° 0 mm 1 mps 757 mmHg 90%
    18:00 -10°C° 0 mm 1 mps 757 mmHg 91%
    19:00 -11°C° 0 mm 1 mps 757 mmHg 92%
    20:00 -11°C° 0 mm 1 mps 757 mmHg 93%
    21:00 -11°C° 0 mm 1 mps 757 mmHg 93%
    22:00 -12°C° 0 mm 0 mps 758 mmHg 93%
    23:00 -12°C° 0 mm 0 mps 758 mmHg 93%

    Tomorrow, 20 January, Friday

    Time Temperature Precipitation Wind Pressure Humidity
    00:00 -11°C° 0 mm 0 mps 758 mmHg 93%
    01:00 -11°C° 0 mm 1 mps 758 mmHg 93%
    02:00 -12°C° 0 mm 0 mps 757 mmHg 93%
    03:00 -12°C° 0 mm 0 mps 757 mmHg 93%
    04:00 -12°C° 0 mm 0 mps 757 mmHg 93%
    05:00 -12°C° 0 mm 1 mps 757 mmHg 93%
    06:00 -12°C° 0 mm 1 mps 757 mmHg 93%
    07:00 -12°C° 0 mm 1 mps 757 mmHg 93%
    08:00 -10°C° 0 mm 1 mps 757 mmHg 90%
    09:00 -8°C° 0 mm 1 mps 757 mmHg 87%
    10:00 -6°C° 0 mm 1 mps 758 mmHg 85%
    11:00 -4°C° 0 mm 1 mps 757 mmHg 83%
    12:00 -5°C° 0 mm 2 mps 757 mmHg 82%
    13:00 -4°C° 0 mm 2 mps 757 mmHg 80%
    14:00 -5°C° 0 mm 2 mps 757 mmHg 83%
    15:00 -6°C° 0 mm 2 mps 756 mmHg 86%
    16:00 -7°C° 0 mm 2 mps 756 mmHg 89%
    17:00 -8°C° 0 mm 2 mps 756 mmHg 90%
    18:00 -9°C° 0 mm 2 mps 756 mmHg 91%
    19:00 -10°C° 0 mm 2 mps 756 mmHg 91%
    20:00 -10°C° 0 mm 2 mps 756 mmHg 91%
    21:00 -10°C° 0 mm 2 mps 756 mmHg 91%
    22:00 -10°C° 0 mm 2 mps 756 mmHg 92%
    23:00 -10°C° 0 mm 2 mps 756 mmHg 92%

    Day after tomorrow, 21 January, Saturday

    Time Temperature Precipitation Wind Pressure Humidity
    00:00 -10°C° 0 mm 2 mps 756 mmHg 92%
    01:00 -10°C° 0 mm 2 mps 756 mmHg 93%
    02:00 -12°C° 0 mm 2 mps 756 mmHg 93%
    03:00 -10°C° 0 mm 1 mps 755 mmHg 94%
    04:00 -10°C° 0 mm 1 mps 755 mmHg 94%
    05:00 -10°C° 0 mm 1 mps 755 mmHg 95%
    06:00 -10°C° 0 mm 1 mps 755 mmHg 95%
    07:00 -10°C° 0 mm 1 mps 755 mmHg 95%
    08:00 -9°C° 0 mm 1 mps 755 mmHg 94%
    09:00 -7°C° 0 mm 1 mps 756 mmHg 92%
    10:00 -4°C° 0 mm 1 mps 756 mmHg 90%
    11:00 -3°C° 0 mm 1 mps 756 mmHg 88%
    12:00 -4°C° 0 mm 2 mps 755 mmHg 87%
    13:00 -3°C° 0 mm 2 mps 755 mmHg 85%
    14:00 -4°C° 0 mm 2 mps 755 mmHg 88%
    15:00 -5°C° 0 mm 2 mps 755 mmHg 90%
    16:00 -6°C° 0 mm 2 mps 755 mmHg 93%
    17:00 -7°C° 0 mm 2 mps 755 mmHg 93%
    18:00 -8°C° 0 mm 2 mps 755 mmHg 93%
    19:00 -9°C° 0 mm 2 mps 755 mmHg 94%
    20:00 -9°C° 0 mm 2 mps 755 mmHg 94%
    21:00 -9°C° 0 mm 2 mps 756 mmHg 94%
    22:00 -9°C° 0 mm 2 mps 756 mmHg 94%
    23:00 -8°C° 0 mm 2 mps 756 mmHg 94%

    22 January, Sunday

    Time Temperature Precipitation Wind Pressure Humidity
    00:00 -8°C° 0 mm 2 mps 756 mmHg 94%
    01:00 -8°C° 0 mm 2 mps 756 mmHg 94%
    02:00 -9°C° 0 mm 3 mps 756 mmHg 94%
    03:00 -9°C° 0 mm 3 mps 755 mmHg 94%
    04:00 -9°C° 0 mm 3 mps 755 mmHg 95%
    05:00 -9°C° 0 mm 3 mps 755 mmHg 94%
    06:00 -9°C° 0 mm 3 mps 755 mmHg 94%
    07:00 -9°C° 0 mm 3 mps 755 mmHg 94%
    08:00 -9°C° 0 mm 4 mps 755 mmHg 92%
    09:00 -8°C° 0 mm 4 mps 755 mmHg 90%
    10:00 -7°C° 0 mm 4 mps 755 mmHg 87%
    11:00 -6°C° 0 mm 5 mps 755 mmHg 85%
    12:00 -5°C° 0 mm 5 mps 754 mmHg 83%
    13:00 -4°C° 0 mm 5 mps 754 mmHg 80%
    14:00 -5°C° 0 mm 5 mps 754 mmHg 82%
    15:00 -5°C° 0 mm 5 mps 753 mmHg 84%
    16:00 -6°C° 0 mm 5 mps 753 mmHg 85%
    17:00 -7°C° 0 mm 5 mps 753 mmHg 87%
    18:00 -8°C° 0 mm 5 mps 753 mmHg 89%
    19:00 -8°C° 0 mm 5 mps 753 mmHg 91%
    20:00 -10°C° 0 mm 5 mps 753 mmHg 91%
    21:00 -10°C° 0 mm 5 mps 753 mmHg 92%
    22:00 -10°C° 0 mm 5 mps 753 mmHg 93%
    23:00 -9°C° 0 mm 4 mps 753 mmHg 94%

    23 January, Monday

    Time Temperature Precipitation Wind Pressure Humidity
    00:00 -10°C° 0 mm 4 mps 752 mmHg 94%
    01:00 -10°C° 0 mm 4 mps 752 mmHg 95%
    02:00 -10°C° 0 mm 4 mps 752 mmHg 95%
    03:00 -11°C° 0 mm 4 mps 752 mmHg 96%
    04:00 -12°C° 0 mm 3 mps 751 mmHg 96%
    05:00 -12°C° 0 mm 3 mps 751 mmHg 96%
    06:00 -12°C° 0 mm 3 mps 751 mmHg 96%
    07:00 -10°C° 0 mm 2 mps 751 mmHg 96%
    08:00 -9°C° 0 mm 2 mps 751 mmHg 94%
    09:00 -8°C° 0 mm 2 mps 751 mmHg 93%
    10:00 -6°C° 0 mm 2 mps 751 mmHg 91%
    11:00 -6°C° 0 mm 2 mps 751 mmHg 89%
    12:00 -5°C° 0 mm 2 mps 750 mmHg 88%
    13:00 -4°C° 0 mm 2 mps 750 mmHg 86%
    14:00 -4°C° 0 mm 2 mps 750 mmHg 88%
    15:00 -3°C° 0 mm 1 mps 749 mmHg 90%
    16:00 -3°C° 0 mm 1 mps 749 mmHg 91%
    17:00 -4°C° 0 mm 1 mps 749 mmHg 92%
    18:00 -6°C° 0 mm 1 mps 749 mmHg 93%
    19:00 -6°C° 0 mm 0 mps 749 mmHg 94%
    20:00 -6°C° 0 mm 1 mps 749 mmHg 95%
    21:00 -6°C° 0 mm 1 mps 749 mmHg 95%
    22:00 -7°C° 0 mm 1 mps 749 mmHg 95%
    23:00 -7°C° 0 mm 1 mps 749 mmHg 95%

    24 January, Tuesday

    Time Temperature Precipitation Wind Pressure Humidity
    00:00 -7°C° 0 mm 1 mps 748 mmHg 95%
    01:00 -8°C° 0 mm 1 mps 748 mmHg 96%
    02:00 -8°C° 0 mm 1 mps 748 mmHg 96%
    03:00 -8°C° 0 mm 1 mps 748 mmHg 96%
    04:00 -9°C° 0 mm 2 mps 748 mmHg 96%
    05:00 -9°C° 0 mm 2 mps 748 mmHg 96%
    06:00 -10°C° 0 mm 2 mps 748 mmHg 96%
    07:00 -10°C° 0 mm 2 mps 749 mmHg 96%
    08:00 -9°C° 0 mm 2 mps 749 mmHg 93%
    09:00 -8°C° 0 mm 2 mps 749 mmHg 90%
    10:00 -7°C° 0 mm 2 mps 749 mmHg 87%
    11:00 -7°C° 0 mm 3 mps 749 mmHg 86%
    12:00 -6°C° 0 mm 3 mps 749 mmHg 84%
    13:00 -5°C° 0 mm 3 mps 749 mmHg 82%
    14:00 -6°C° 0 mm 3 mps 749 mmHg 84%
    15:00 -6°C° 0 mm 3 mps 749 mmHg 86%
    16:00 -7°C° 0 mm 3 mps 749 mmHg 89%
    17:00 -8°C° 0 mm 3 mps 749 mmHg 90%
    18:00 -9°C° 0 mm 3 mps 750 mmHg 91%
    19:00 -10°C° 0 mm 3 mps 750 mmHg 92%
    20:00 -10°C° 0 mm 3 mps 750 mmHg 91%
    21:00 -10°C° 0 mm 3 mps 751 mmHg 91%
    22:00 -12°C° 0 mm 3 mps 751 mmHg 91%
    23:00 -12°C° 0 mm 3 mps 751 mmHg 91%
    Show more